Regional Weather Roundup
Issued by NWS

Home | Current Version | Previous Version | Text Only | Print | Product List | Glossary On
Versions: 1 2 3 4 5 6 7 8 9 10 11 12 13 14 15 16 17 18 19 20 21 22 23 24 25 26 27 28 29 30 31 32 33 34 35 36 37 38 39 40 41 42 43 44 45 46 47 48 49 50
000
ASUS43 KMPX 021710
RWRMN
WEATHER ROUNDUP FOR MINNESOTA
NATIONAL WEATHER SERVICE TWIN CITIES/CHANHASSEN MN
1200 PM CDT TUE SEP 02 2014


NOTE: "FAIR" INDICATES FEW OR NO CLOUDS BELOW 12,000 FEET WITH NO
SIGNIFICANT WEATHER AND/OR OBSTRUCTIONS TO VISIBILITY. N/A MEANS
CURRENT SKY AND/OR WEATHER CONDITIONS ARE NOT AVAILABLE.

MNZ060>063-068>070-021800-
   Twin Cities Metro

CITY           SKY/WX    TMP DP  RH WIND       PRES   REMARKS
TWIN CITIES    MOSUNNY   73  54  51 W8        29.90S
ST PAUL        MOSUNNY   73  56  54 SW6       29.90S
CRYSTAL        SUNNY     74  51  44 W7        29.88F
BLAINE         SUNNY     75  55  50 SW5       29.90
LAKEVILLE      SUNNY     72  57  60 W6        29.91S
EDEN PRAIRIE   SUNNY     74  54  49 W5        29.90R
SOUTH ST PAUL  SUNNY     73  55  53 SW5       29.90S
LAKE ELMO      FAIR      72  55  56 W3        29.91R
$$
MNZ001>005-007-008-013>017-022>024-027-028-021800-
   Northwest Minnesota

CITY           SKY/WX    TMP DP  RH WIND       PRES   REMARKS
BEMIDJI        SUNNY     71  51  48 W9        29.81S
HALLOCK        MOSUNNY   66  55  68 S9        29.74F
ROSEAU         PTSUNNY   64  55  72 SW5       29.77S
WARROAD        PTSUNNY   64  55  72 SW7       29.77S
THIEF RVR FALL CLOUDY    63  54  72 SW9       29.83R
CROOKSTON      RAIN      61  55  82 SW5       29.81F
FOSSTON        MOSUNNY   66  55  68 S12       29.82S
DETROIT LAKES  SUNNY     70  52  52 W9        29.85F
MOORHEAD       MOSUNNY   72  57  60 SW7       29.83S
PARK RAPIDS    SUNNY     72  53  51 W10       29.84S
MAHNOMEN       PTSUNNY   69  56  63 SW8       29.82S
$$
MNZ006-009>011-018-025>026-021800-
   North Central Minnesota

CITY           SKY/WX    TMP DP  RH WIND       PRES   REMARKS
BAUDETTE       SUNNY     68  51  54 VRB7      29.77S
FLAG ISLAND    MOSUNNY   66  48  52 W9        29.73F
INTL FALLS     MOSUNNY   68  55  63 W9        29.77S
WASKISH        SUNNY     68  57  68 SW8       29.79F
BIG FORK       SUNNY     72  48  43 SW9G16    29.80S
LONGVILLE      SUNNY     72  54  53 SW3       29.83S
GRAND RAPIDS   SUNNY     70  50  49 W12       29.82F
CRANE LAKE     SUNNY     66  54  63 W5        29.78F
ORR            MOSUNNY   70  48  46 SW7       29.76F
COOK           PTSUNNY   70  50  49 SW14      29.79F
WALKER         FAIR      70  51  52 W12G17    29.82S
$$
MNZ012-019>021-037-021800-
   Northeast Minnesota

CITY           SKY/WX    TMP DP  RH WIND       PRES   REMARKS
DULUTH         MOSUNNY   72  50  45 W12       29.84S
ELY            SUNNY     68  52  56 SW9       29.79F
HIBBING        MOSUNNY   71  51  49 W8        29.81F
EVELETH        MOSUNNY   72  50  46 SW14      29.82F
DULUTH HARBOR  SUNNY     73  55  53 W14       29.82F
TWO HARBORS    SUNNY     70  54  56 W7        29.80S
SILVER BAY     SUNNY     72  55  56 W9        29.79F
GRAND MARAIS     N/A     65  59  81 VRB5      29.77F
G MARAIS ARPRT SUNNY     70  48  46 SW7       29.81S
$$
MNZ029>031-032-039>041-046>048-054>057-064-021800-
   West Central Minnesota

CITY           SKY/WX    TMP DP  RH WIND       PRES   REMARKS
FERGUS FALLS   SUNNY     72  52  49 SW9       29.85F
WHEATON        SUNNY     72  55  56 SW8       29.88F
MORRIS         SUNNY     75  54  46 SW10      29.88S
ALEXANDRIA     SUNNY     71  53  52 SW10      29.90S
ELBOW LAKE     FAIR      71  55  57 SW8       29.87S
WADENA         SUNNY     72  55  56 SW9       29.86S
GLENWOOD       SUNNY     73  55  53 S8        29.90S
APPLETON       SUNNY     75  55  50 SW8       29.88F
BENSON         SUNNY     73  57  56 W8        29.89S
ORTONVILLE     SUNNY     73  55  53 W7        29.89R
MADISON        SUNNY     75  57  53 S7        29.90S
WILLMAR        FAIR      73  57  56 SW8       29.92S
$$
MNZ033>034-036-042>043-049>051-058-059-021800-
   Central Minnesota

CITY           SKY/WX    TMP DP  RH WIND       PRES   REMARKS
ST CLOUD       SUNNY     75  52  44 SW8       29.88F
SAUK CENTRE    FAIR      72  54  53 W10       29.89S
PAYNESVILLE    HVY RAIN  70  52  53 S8        29.91S
AITKIN         SUNNY     73  55  53 SW8       29.84S
PINE RIVER     SUNNY     70  55  60 SW8       29.88S
BRAINERD       SUNNY     70  54  56 SW12      29.86F
STAPLES        SUNNY     72  54  53 SW9       29.86S
LONG PRAIRIE   FAIR      70  54  56 SW9       29.89S
LITTLE FALLS   SUNNY     72  50  46 W7        29.88S
LITCHFIELD     SUNNY     73  55  53 SW5       29.91S
BUFFALO        SUNNY     72  53  50 S6        29.91S
MAPLE LAKE     SUNNY     73  57  56 SW3       29.91R
$$
MNZ037-044-045-052-053-021800-
   East Central Minnesota

CITY           SKY/WX    TMP DP  RH WIND       PRES   REMARKS
PRINCETON      SUNNY     75  54  46 W5        29.89R
MORA           SUNNY     70  52  52 W5        29.89S
CAMBRIDGE      SUNNY     73  55  53 SW7       29.87S
RUSH CITY      SUNNY     72  56  55 W7        29.89R
MOOSE LAKE     SUNNY     72  52  49 SW7       29.83F
HINCKLEY       FAIR      72  54  53 W13       29.88R
CLOQUET        SUNNY     72  48  43 SW13      29.84S
MCGREGOR       SUNNY     72  52  49 SW12G17   29.85F
$$
MNZ071>073-080-081-089-090-097-098-021800-
   Southwest Minnesota

CITY           SKY/WX    TMP DP  RH WIND       PRES   REMARKS
MONTEVIDEO     SUNNY     75  59  57 W5        29.91S
GRANITE FALLS  SUNNY     72  56  57 SW7       29.93S
CANBY          SUNNY     74  51  44 SW10      29.92S
MARSHALL       SUNNY     75  52  43 SW6       29.91S
REDWOOD FALLS  SUNNY     74  54  49 S8        29.92R
OLIVIA         SUNNY     73  54  49 SW7       29.91S
PIPESTONE      SUNNY     72  57  60 SW6       29.96R
WINDOM         SUNNY     72  59  64 S5        29.94S
WORTHINGTON    SUNNY     70  57  64 SW10      29.97S
JACKSON        SUNNY     72  55  56 SW9       29.96S
TRACY          SUNNY     74  55  51 SW5       29.94S
SLAYTON        SUNNY     71  56  59 CALM      29.96R
$$
MNZ065>067-074>077-082>085-091>093-021800-
   South Central Minnesota

CITY           SKY/WX    TMP DP  RH WIND       PRES   REMARKS
MANKATO        SUNNY     72  57  60 CALM      29.92F
NEW ULM        SUNNY     72  59  64 CALM      29.92S
ST JAMES       SUNNY     73  57  56 S5        29.94S
FAIRMONT       SUNNY     72  55  56 W9        29.95S
GLENCOE        SUNNY     73  54  52 SW5       29.91S
FARIBAULT      SUNNY     75  55  50 S6        29.92S
OWATONNA       SUNNY     72  57  60 W8        29.93S
WASECA         SUNNY     72  57  60 SW6       29.95S
ALBERT LEA     SUNNY     72  57  60 SW6       29.94S
$$
MNZ078>079-086>088-094>096-021800-
   Southeast Minnesota

CITY           SKY/WX    TMP DP  RH WIND       PRES   REMARKS
ROCHESTER      SUNNY     72  59  63 W7        29.94R
RED WING       SUNNY     75  57  53 W9        29.89S
STANTON        SUNNY     73  56  56 W6        29.90S
DODGE CENTER   SUNNY     72  59  64 W10       29.93S
WINONA         MOSUNNY   73  59  60 NW8       29.91R
AUSTIN         SUNNY     72  57  60 W9        29.94R
PRESTON        SUNNY     72  61  67 CALM      29.94R
$$
ABBREVIATIONS USED IN REMARKS
   TC - TEMPERATURES IN CELSIUS
  WCI - WIND CHILL INDEX
   HX - HEAT INDEX
  VSB - VISIBILITY
$$


USA.gov is the U.S. government's official web portal to all federal, state and local government web resources and services.